Back to catalog

STARLINK-11406

AliveCommunicationsVLEO
NORAD 63057·PAYLOAD·🇺🇸 United States

Launched Feb 21, 2025 from Cape Canaveral Space Force Station

Loading…

Next Passes (next 24 hours)

TLE

FreshSource: CelesTrak SupGP

Epoch: Sep 14, 2026, 21:12 UTC

1 63057C 25035F   26257.88381944 -.00100940  00000+0 -78372-3 0  2575
2 63057  43.0002 314.8716 0001509 279.4167 200.2967 15.70896114    12

Track STARLINK-11406 in real time with AllMySat

Download on the App Store